Theta_e
305 299 294 298 301 301 299 297 296 299 304 302 301 302 306 310 310 310 311 311 313 315 318 314 317 323 326 328 328 328 328 329 330 329 328 326 323 325 326 331 331 331 331 329
299 294 300 301 302 300 299 296 296 299 301 301 301 300 305 307 308 310 310 310 311 313 315 317 315 319 324 325 328 328 328 328 330 331 331 329 327 327 327 329 330 331 330 330
295 297 301 299 298 296 296 294 295 295 299 302 299 297 300 305 308 309 310 311 312 312 312 314 315 314 321 324 326 328 328 329 330 330 330 329 328 327 325 326 327 329 329 329
298 301 299 298 296 298 292 299 297 296 293 288 299 288 296 300 301 304 307 309 312 313 315 315 316 316 316 324 326 328 330 330 330 330 328 326 324 322 323 325 327 327 328 328
294 296 297 295 296 299 295 300 298 296 293 291 293 289 294 299 298 301 305 308 310 313 315 315 316 317 317 320 326 328 328 330 331 331 329 327 326 326 326 326 326 327 328 329
296 301 300 298 300 300 301 299 298 296 292 284 291 290 293 296 299 302 304 307 309 311 314 315 317 317 317 318 322 327 326 328 331 329 328 327 325 324 325 327 326 328 329 326
292 294 299 301 296 300 298 293 284 283 283 284 293 291 294 300 303 304 305 307 309 310 311 312 313 314 315 314 318 322 326 326 329 329 328 328 326 327 328 328 327 328 328 328
286 284 293 299 297 294 294 293 286 280 282 286 291 288 294 301 304 306 307 307 307 307 309 310 310 313 314 314 312 316 320 324 326 328 327 327 328 328 328 329 328 329 329 329
286 286 296 297 299 298 293 289 295 287 284 283 289 293 298 301 302 304 304 304 304 304 304 303 304 308 309 313 314 312 317 320 324 326 327 327 328 328 328 329 330 329 330 329
292 286 294 296 298 299 296 298 288 288 281 280 286 288 290 296 299 302 301 300 301 300 300 300 300 301 305 307 310 311 313 317 321 324 326 326 327 328 329 329 329 329 329 329
295 291 289 294 292 291 291 289 291 291 288 282 281 286 298 298 301 300 301 299 299 298 300 299 300 299 300 301 304 306 308 312 316 321 323 325 326 327 328 328 328 328 329 328
295 290 285 288 296 299 296 293 292 286 283 287 286 287 297 298 300 300 299 298 298 300 301 301 302 298 300 297 299 301 305 309 314 318 321 323 325 326 326 326 327 327 326 328
294 287 282 285 288 292 292 294 294 293 289 285 284 288 298 298 300 300 301 302 301 302 302 303 307 300 299 298 298 297 301 306 312 316 319 321 323 323 324 325 325 324 324 325
297 289 285 284 287 291 288 292 293 291 286 287 287 291 296 298 299 301 302 304 304 303 301 302 306 306 300 297 299 296 298 302 308 314 317 319 320 322 323 323 322 322 322 322
294 285 287 290 290 290 290 290 292 290 290 286 291 291 296 299 300 302 303 304 304 304 304 304 305 306 306 298 298 298 296 298 304 309 313 317 320 320 320 320 319 320 319 320
293 285 287 284 290 290 287 289 292 292 292 292 293 292 300 302 303 302 302 302 302 303 304 305 306 304 303 297 296 298 298 299 298 305 308 312 314 314 315 314 314 314 315 316
290 286 284 282 286 285 283 287 289 291 293 293 289 294 299 299 299 300 301 302 302 303 304 305 305 305 304 301 297 298 299 300 299 300 304 307 308 307 306 306 305 303 305 306
288 286 286 283 282 277 287 291 293 291 293 295 295 297 299 299 301 302 303 302 302 302 302 304 305 306 304 300 298 298 299 299 299 299 299 300 301 303 301 300 301 298 298 299
293 288 283 281 279 282 286 287 288 289 290 295 294 296 297 298 298 299 296 295 294 295 297 299 303 304 303 299 298 298 298 299 298 297 297 296 296 295 294 293 294 292 293 291
288 288 284 280 276 275 283 289 291 294 284 289 290 289 289 293 290 294 294 293 293 293 293 294 296 297 296 295 294 295 295 296 296 295 294 294 291 292 292 292 290 287 288 288
283 283 281 279 278 281 286 289 291 284 284 288 289 288 288 288 291 292 291 290 291 290 289 290 290 290 288 289 290 291 291 292 291 290 289 289 290 290 292 290 288 288 288 288
280 280 279 279 277 275 288 288 286 287 287 286 285 286 284 286 287 288 288 288 288 287 286 286 286 286 285 286 287 289 289 286 287 288 288 287 288 288 288 288 288 288 289 289
279 284 281 283 283 287 288 287 284 284 284 284 283 283 282 283 284 284 284 285 285 283 282 283 283 284 283 283 283 286 285 286 286 286 286 286 286 286 287 287 288 289 288 290
283 285 284 283 286 286 287 282 282 281 281 281 281 280 281 280 281 280 281 282 281 281 280 280 281 281 280 281 282 282 284 286 286 286 286 286 286 286 286 287 288 289 289 289
285 286 283 284 286 286 281 279 278 278 279 278 278 278 279 279 280 279 279 279 280 279 279 279 278 278 279 279 279 280 281 284 286 286 286 286 286 286 286 286 287 287 287 289
284 285 284 283 283 285 281 277 276 276 276 276 276 276 277 278 278 278 278 278 278 277 277 276 276 276 277 277 277 277 278 280 285 285 285 286 286 286 286 286 286 289 289 289
Wind_Speed
13 9 16 13 19 16 15 10 17 14 11 17 20 23 20 21 22 21 20 21 20 22 20 18 15 16 17 18 19 21 20 21 14 12 13 13 13 12 12 12 16 17 15 16
7 18 17 14 15 15 16 18 18 13 10 15 20 27 23 23 26 23 24 24 24 23 22 19 18 16 18 21 22 21 21 20 19 13 13 13 13 12 12 11 14 17 18 17
17 4 13 12 13 17 18 17 15 19 12 12 15 31 26 24 27 25 25 26 25 25 23 18 18 21 19 20 21 21 22 22 22 21 13 12 10 9 10 13 13 15 19 19
14 12 16 15 16 13 18 16 19 19 12 13 6 19 23 20 23 21 17 18 20 22 21 20 22 22 22 21 18 21 22 23 20 22 18 21 16 13 13 13 13 13 19 19
9 13 19 15 14 16 15 10 13 17 17 12 19 13 12 9 16 19 18 18 21 21 20 22 20 21 20 18 18 20 22 21 21 20 22 17 19 14 9 11 16 17 16 19
15 2 15 22 12 17 4 14 9 3 0 9 15 13 20 14 17 17 21 19 20 18 18 18 18 16 16 15 17 18 22 22 22 22 23 22 22 19 14 14 13 12 12 13
14 19 3 5 17 15 14 6 4 7 6 9 2 13 22 11 12 11 17 18 14 16 16 15 16 14 15 15 19 18 19 21 21 23 24 26 24 23 22 19 15 15 13 13
15 11 23 14 15 7 20 16 8 8 9 5 3 14 9 5 10 16 16 16 16 17 14 16 16 15 15 15 16 19 19 21 21 23 24 22 24 16 17 18 14 13 14 14
11 12 5 12 14 16 9 10 7 4 1 2 7 13 14 15 18 16 13 10 9 11 13 14 13 11 14 12 16 17 20 20 20 22 20 21 21 21 18 21 18 14 15 12
6 7 5 14 14 18 19 8 7 5 4 7 13 14 15 8 16 14 8 1 6 6 12 12 9 10 10 12 13 14 16 18 18 19 19 18 20 20 20 16 18 18 16 16
10 7 5 11 14 16 9 8 10 6 6 9 11 13 8 16 12 10 4 5 7 6 11 12 12 8 8 11 9 8 11 15 15 16 17 18 17 19 18 16 16 16 15 16
22 3 8 16 4 19 22 20 18 9 9 6 5 15 5 8 10 7 8 9 8 8 10 11 12 11 11 7 7 6 7 12 13 15 16 17 17 17 18 18 17 15 16 16
13 6 4 5 6 4 16 21 17 14 3 9 7 13 3 3 7 3 9 11 11 11 14 14 13 9 9 10 11 5 7 11 12 13 15 16 16 17 17 17 16 15 17 17
16 6 12 11 2 5 5 18 17 16 8 18 14 27 19 14 17 20 21 20 17 15 14 13 15 13 8 7 10 9 7 9 10 12 13 14 16 16 15 15 16 16 14 14
12 7 14 12 3 1 3 9 17 18 24 10 25 22 26 17 16 16 19 21 21 17 15 15 16 16 13 8 10 9 8 7 10 12 12 13 12 12 13 14 14 12 12 13
7 3 4 5 12 11 9 13 15 20 23 22 29 24 23 26 21 21 19 17 19 19 16 18 18 17 16 9 9 7 7 6 5 8 8 7 7 7 10 8 8 8 9 10
12 7 6 6 7 7 11 23 22 20 18 23 22 28 18 22 17 17 19 17 20 21 21 20 19 18 16 11 8 8 4 4 6 7 5 8 7 7 6 6 6 6 6 5
8 6 4 3 3 7 1 1 19 24 24 22 24 23 23 19 18 17 17 18 18 20 22 20 17 17 14 7 6 6 5 6 4 4 4 5 6 7 5 5 6 4 3 5
6 6 4 5 6 7 11 7 8 11 10 12 22 19 20 14 11 12 13 16 16 19 19 19 18 17 15 10 6 5 4 6 9 7 5 4 4 5 5 4 4 2 3 2
3 3 4 4 4 8 1 1 3 6 9 5 2 6 9 6 5 8 17 17 18 19 17 18 19 15 10 8 4 3 5 5 5 4 8 6 5 4 5 5 4 2 2 3
5 2 9 6 7 8 10 7 1 8 0 3 4 6 8 3 4 17 19 17 16 15 19 19 15 13 11 11 10 5 4 7 4 4 3 2 4 6 6 5 3 4 4 5
10 10 7 5 6 12 6 4 9 3 4 3 1 1 4 9 13 11 16 17 18 20 20 17 14 12 11 12 11 8 5 5 6 5 4 3 2 2 4 6 4 5 6 6
8 8 8 12 8 1 2 3 4 3 2 2 1 5 7 10 12 14 15 17 16 15 15 13 13 11 9 12 12 9 8 6 4 3 3 2 2 2 3 5 4 3 3 4
6 5 4 3 6 7 6 7 5 3 3 4 5 6 7 11 13 15 13 15 15 14 14 13 12 10 10 10 9 9 9 6 4 3 2 1 1 3 2 2 3 5 4 4
3 11 7 4 3 4 4 6 4 3 3 4 5 6 7 10 11 12 13 13 13 14 13 13 13 11 10 9 7 8 9 9 5 4 2 1 3 3 4 3 2 1 2 2
6 6 8 5 2 2 5 6 3 2 3 5 8 10 8 9 12 11 11 10 11 12 12 11 11 11 11 10 9 8 9 8 6 4 4 3 3 4 5 5 8 15 9 10
Wind_Direction
198 205 211 192 225 239 244 273 253 264 276 269 266 269 261 266 263 263 264 265 266 265 263 249 242 221 210 212 209 212 204 207 200 201 199 204 208 208 213 212 212 212 211 208
180 218 215 220 220 226 229 250 249 254 267 277 278 274 271 268 265 260 265 266 262 260 257 249 245 229 221 210 209 208 209 204 203 201 201 206 209 217 215 214 215 214 213 211
203 199 186 189 198 223 234 241 255 257 274 274 294 281 266 253 255 256 251 258 264 262 259 250 236 228 219 221 210 206 205 202 201 206 200 207 215 217 207 211 214 215 214 214
225 210 188 206 224 208 232 231 246 255 261 263 251 284 282 281 266 259 253 250 257 254 250 250 247 237 230 221 212 210 205 205 207 199 200 202 205 203 213 209 209 210 213 214
192 200 208 213 211 219 250 226 248 241 246 266 252 269 268 260 263 264 266 261 262 264 263 258 246 240 228 225 214 215 210 206 203 204 205 202 209 214 209 204 209 209 211 215
222 331 217 225 206 214 200 231 228 238 284 244 229 225 281 257 258 264 269 270 267 271 273 266 260 253 243 224 216 213 214 213 202 199 205 207 209 212 208 206 205 205 207 208
214 227 222 187 207 213 207 152 206 207 198 248 156 193 249 323 300 255 266 267 294 288 282 275 261 253 243 222 210 216 214 215 207 203 204 207 212 212 213 209 206 203 205 205
200 203 211 195 214 188 203 202 219 235 215 227 138 229 262 287 286 261 275 279 292 303 295 278 275 270 254 233 215 218 220 218 209 210 211 211 214 215 215 213 208 212 211 210
189 225 198 206 203 192 165 202 237 275 164 256 231 253 267 250 260 265 270 280 295 312 308 318 316 271 265 250 233 217 221 223 218 214 213 214 214 213 213 215 211 212 213 211
178 221 193 184 195 225 231 156 194 188 242 245 249 266 256 276 281 260 233 303 320 312 327 326 334 304 287 276 258 227 229 227 221 221 218 217 215 216 215 214 213 214 213 210
198 235 140 159 201 187 190 218 224 251 230 238 265 260 264 238 262 279 264 321 310 321 317 332 332 315 280 271 238 197 222 230 226 223 220 221 220 217 216 216 215 213 214 209
206 161 226 226 263 234 201 200 191 203 195 231 283 263 159 237 260 277 303 295 330 298 299 311 321 320 319 295 239 209 234 243 235 229 222 221 219 214 214 213 212 210 212 211
157 195 210 201 252 238 217 213 205 218 110 214 210 253 187 199 288 309 306 307 292 299 309 318 317 315 315 307 306 288 229 239 242 229 222 222 219 216 216 212 211 208 212 213
164 188 218 237 103 141 205 210 195 204 213 235 238 266 255 272 295 293 300 306 304 307 303 306 306 306 290 271 286 283 262 244 239 232 224 222 220 218 216 215 215 213 207 208
176 206 212 226 151 184 210 217 216 216 228 231 248 252 270 272 276 282 289 291 296 298 291 292 296 297 305 282 274 260 246 234 222 218 222 228 224 216 215 216 214 210 205 209
181 189 159 238 219 212 226 238 236 229 234 242 256 264 269 271 278 276 290 301 299 299 298 295 292 287 295 273 269 249 247 245 227 215 208 219 211 200 208 204 201 207 203 198
171 146 158 237 204 215 243 230 226 234 228 234 247 253 267 271 280 295 299 306 300 302 303 301 294 289 287 285 276 268 247 191 214 232 205 202 208 197 199 177 174 188 192 183
156 145 147 217 116 226 277 329 221 223 236 234 250 260 271 289 305 299 295 304 316 322 317 313 307 298 284 277 250 241 222 203 173 234 234 209 197 208 199 195 198 178 169 196
187 142 174 195 202 312 273 221 189 184 237 248 247 272 287 306 289 300 38 354 337 327 322 313 311 306 293 274 244 239 222 239 157 176 214 220 198 186 177 179 173 102 132 106
98 70 158 170 208 231 251 278 200 151 255 85 117 59 21 358 333 324 1 336 327 327 324 326 326 316 306 325 308 238 249 209 273 177 167 164 146 169 163 144 131 127 121 137
149 154 211 195 227 271 250 234 21 195 141 118 23 23 15 353 305 309 317 323 330 331 332 335 336 342 354 350 333 312 327 309 11 42 44 107 149 155 152 143 147 147 137 135
166 173 198 177 231 256 203 143 218 85 103 139 136 78 310 288 292 303 318 326 333 337 341 345 340 348 354 352 337 330 2 1 8 2 5 10 9 120 134 146 144 145 145 140
192 193 182 196 208 48 114 79 113 61 55 50 321 353 334 315 322 328 324 327 332 336 336 340 335 337 6 359 357 345 357 346 337 82 17 342 61 32 109 136 146 135 141 144
226 172 218 152 197 219 148 93 101 66 30 13 8 347 346 322 329 328 331 330 326 334 335 335 337 344 348 358 354 346 335 330 318 319 117 43 32 98 74 101 157 153 155 137
172 162 172 245 241 139 103 98 100 85 35 353 350 343 334 323 318 325 323 325 325 325 332 335 333 333 334 338 343 340 335 326 304 287 248 189 126 110 91 63 87 50 14 128
194 172 195 209 107 330 87 112 88 86 352 344 340 335 333 319 314 322 312 315 320 323 327 329 329 326 326 329 335 339 333 325 297 258 219 178 138 124 116 110 81 57 74 91